www.pogodaiklimat.ru

Погода и климат >> Архив погоды >> Россия >> Краснодарский край >> Кущевская


ПОГОДА в Кущевской

  • Прогноз погоды в Кущевской
  • Монитор погоды в Кущевской

АРХИВ ПОГОДЫ в Кущевской

Время (UTC), дата Ветер
(напр.,м/с)
 
Видим.   Явления Облачность Т
(С)
Тd
(С)
f
(%)
Тe
(С)
Тes
(С)
Комфортность P
(гПа)
Po
(гПа)
Тmin
(С)
Tmax
(С)
R
(мм)
R24
(мм)
S
(см)
21 15.09 штиль 0 10 км ясно +9.2 +1.4 58 +9 +9 1021.0 1018.3
00 16.09 штиль 0 10 км ясно +6.7 +2.1 72 +6 +6 1020.6 1017.9
03 16.09 штиль 0 10 км ясно +4.7 +0.7 75 +4 +4 1019.8 1017.1 +4.7
06 16.09 ЮВ 1 10 км ясно +18.3 +1.1 31 +20 +25 1018.5 1015.9 +4.7
09 16.09 СЗ 1 10 км ясно +25.6 -1.1 17 +24 +36 комфорт 1016.1 1013.5
12 16.09 З 2 10 км ясно +27.0 -3.4 13 +24 +31 комфорт 1013.8 1011.3
15 16.09 З 2 10 км ясно +23.0 +2.4 26 +23 +23 комфорт 1012.9 1010.3 +27.0
18 16.09 ЮЗ 1 10 км ясно +14.0 +2.8 47 +15 +15 1013.0 1010.4
21 16.09 штиль 0 10 км ясно +10.1 +3.2 62 +10 +10 1012.9 1010.2
00 17.09 штиль 0 10 км ясно +11.7 +7.4 75 +11 +11 1012.2 1009.5
03 17.09 штиль 0 10 км ясно +12.2 +9.1 81 +12 +12 1011.7 1009.1 +9.2
06 17.09 ЮЗ 1 10 км ясно +20.7 +12.5 59 +24 +29 комфорт 1011.3 1008.7
09 17.09 ЮЗ 2 10 км 3/3 1000 м
[Cu med, cong]
+25.8 +11.3 40 +27 +34 жарко 1010.2 1007.6
12 17.09 ЮЗ 3
{11}
10 км 4/3 1000 м
[Cu med, cong Ci fib]
+26.7 +10.3 36 +27 +31 жарко 1009.0 1006.5
15 17.09 ЮЗ 3
{10}
10 км 8/0
[Ac lent Ci fib]
+22.7 +8.3 40 +24 +24 комфорт 1009.0 1006.5 +26.7
18 17.09 ЮЗ 1 10 км 8/8 1000 м
[Sc]
+21.2 +10.9 52 +23 +23 комфорт 1010.1 1007.6
21 17.09 Ю 2 10 км 10/10 1000 м
[Sc]
+20.0 +12.9 64 +22 +22 комфорт 1009.5 1006.9
00 18.09 З 2 10 км {ливн. осадки} 10/10 1000 м
[Sc]
+18.4 +15.1 81 +19 +19 1009.8 1007.2
03 18.09 штиль 0 4000 м дымка 10/10 600 м
[Sc]
+16.4 +14.5 89 +16 +16 1010.1 1007.5 +16.2 0.0
06 18.09 Ю 2 10 км 8/8 1000 м
[Sc]
+20.6 +15.3 72 +24 +25 комфорт 1010.3 1007.7 +15.3
09 18.09 ЮЗ 4 10 км 9/8 600 м
[Cb calv Ac cast]
+24.0 +15.4 59 +27 +28 жарко 1008.6 1006.1
12 18.09 ЮЗ 5-14
{17}
10 км 9/9 600 м
[Cb calv]
+27.1 +12.3 40 +29 +29 жарко 1006.6 1004.1
15 18.09 ЮЗ 5-11
{16}
10 км в посл. час гроза {ливн. осадки} 10/10 600 м
[Cb cap]
+19.7 +15.6 77 +22 +22 комфорт 1008.1 1005.5 +27.1 2
18 18.09 З 3
{12}
10 км {гроза, ливн. осадки} 10/10 600 м
[Cb cap]
+16.9 +10.7 67 +17 +17 1011.9 1009.2
21 18.09 З 2
{10}
10 км 10/10 600 м
[Sc diur, vesp]
+14.3 +7.8 65 +14 +14 1014.9 1012.3
00 19.09 З 2 10 км ясно +11.6 +3.6 58 +11 +11 1016.4 1013.7
03 19.09 З 1 10 км ясно +10.1 +3.9 65 +10 +10 1017.9 1015.3 +9.6 5
06 19.09 З 2 10 км ясно +14.3 +6.3 59 +14 +18 1019.8 1017.1 +9.1
09 19.09 З 4 10 км 4/4 1000 м
[Cu med, cong]
+17.4 +4.9 44 +17 +21 1020.2 1017.6
12 19.09 З 3
{10}
10 км 3/1 1000 м
[Cu hum Ci fib]
+19.0 +3.3 35 +19 +24 1019.7 1017.1
15 19.09 З 2 10 км 4/3 1000 м
[Sc Ac trans]
+16.5 +1.5 36 +17 +17 1019.9 1017.3 +19.1
18 19.09 З 1 10 км ясно +9.8 +4.5 70 +10 +10 1020.6 1017.9
21 19.09 штиль 0 4000 м 6/0
[Ci fib]
+7.4 +5.9 90 +6 +6 1020.3 1017.6
00 20.09 штиль 0 4000 м дымка 10/0
[Ci]
+7.6 +6.2 91 +7 +7 1019.8 1017.1
03 20.09 штиль 0 4000 м дымка 10/10 1000 м
[Sc]
+8.5 +7.1 91 +8 +8 1019.1 1016.4 +6.8
06 20.09 штиль 0 10 км 10/10 1000 м
[Sc]
+12.9 +8.9 77 +12 +12 1018.6 1015.9
09 20.09 Ю 2 10 км 10/10 1000 м
[Sc]
+15.3 +5.7 53 +15 +15 1017.5 1014.9
12 20.09 ЮВ 2 10 км слаб. ливневой дождь 10/10 600 м
[Cb cap]
+11.8 +8.2 79 +11 +11 1017.0 1014.3
15 20.09 Ю 1 4000 м слаб. ливневой дождь 10/10 600 м
[Cb cap]
+9.9 +8.6 92 +9 +9 1017.3 1014.6 +15.7 5
18 20.09 ЮВ 3 4000 м слаб. ливневой дождь 10/10 600 м
[Cb cap]
+9.4 +8.4 93 +7 +7 1016.4 1013.7
21 20.09 З 1 4000 м дымка {ливн. осадки} 8/8 1000 м
[Sc]
+7.9 +6.9 93 +7 +7 1017.0 1014.3
00 21.09 Ю 1 4000 м дымка {ливн. осадки} 10/10 600 м
[Sc]
+8.5 +7.5 93 +8 +8 1016.6 1013.9
03 21.09 штиль 0 4000 м дымка 8/8 600 м
[Sc]
+7.3 +6.3 93 +6 +6 1016.2 1013.5 +7.3 4
06 21.09 ЮЗ 1 10 км ясно +12.2 +8.4 78 +12 +17 1016.7 1014.0 +6.7
09 21.09 СЗ 5-11
{11}
10 км 10/10 600 м
[Cb calv]
+14.6 +4.2 50 +13 +13 1016.6 1014.0
12 21.09 З 2
{11}
10 км {гроза, ливн. осадки} 3/3 600 м
[Cb calv]
+15.2 +7.7 61 +15 +19 1017.0 1014.3
15 21.09 З 1
{11}
10 км гроза, ливневой дождь 10/10 600 м
[Cb cap]
+10.4 +6.4 76 +10 +10 1017.8 1015.1 +16.2 8
18 21.09 штиль 0
{10}
10 км слаб. ливневой дождь {гроза} 10/10 600 м
[Cb cap]
+8.3 +6.3 87 +7 +7 1019.7 1017.0
21 21.09 ЮЗ 1 4000 м дымка ясно +5.9 +4.7 92 +5 +5 1020.4 1017.7
00 22.09 штиль 0 4000 м дымка ясно +5.1 +4.0 93 +4 +4 1020.5 1017.8
03 22.09 Ю 1 4000 м дымка ясно +5.4 +3.7 89 +4 +4 1020.4 1017.7 +4.5 1
06 22.09 Ю 2 10 км 10/0
[Ci fib]
+12.7 +6.1 64 +12 +15 1020.1 1017.4
09 22.09 ЮЗ 3
{12}
10 км 10/10 600 м
[Sc diur, vesp]
+15.6 +5.8 52 +15 +15 1018.0 1015.3
12 22.09 ЮЗ 3
{13}
10 км 10/10 600 м
[Cb cap]
+15.8 +8.2 61 +15 +15 1016.3 1013.7
15 22.09 ЮЗ 3-10
{12}
10 км 10/10 600 м
[Cb cap]
+16.0 +8.5 61 +16 +16 1015.5 1012.9 +16.9

 

Местоположение метеостанции Кущевская (Краснодарский край, Россия): широта 46.53 долгота 39.62 высота над уровнем моря 22 м.

В архиве по умолчанию представлена погода в Кущевской за последнюю неделю. Архивные данные за месяц целиком и за предыдущие месяцы, начиная с января 2011 года, Вы можете получить, выбрав интересующий диапазон дат из раскрывающегося списка и нажав кнопку "Ввод!".


*Определитесь, кто Вы:
робот инопланетянин человек

Внимание! Время в таблицах - всемирное. Для получения местного времени необходимо прибавить поправку, которая равна 3 ч.

Смотрите также архив погоды в соседних городах и на ближайших метеорологических станциях:

Погода в Староминская (Краснодарский край, Россия) (46 км)
Погода в Сосыке (Краснодарский край, Россия) (47 км)
Погода в Зерноград (Ростовская область, Россия) (64 км)
Погода в Каневской (Краснодарский край, Россия) (72 км)
Погода в Маргаритово (Ростовская область, Россия) (72 км)
Погода в Тихорецке (Краснодарский край, Россия) (84 км)
Погода в Ростове-на-Дону (Ростовская область, Россия) (84 км)
Погода в Таганроге (Ростовская область, Россия) (92 км)
Погода в Ейске (Краснодарский край, Россия) (107 км)
Погода в Белой Глине (Краснодарский край, Россия) (109 км)

Пояснения к столбцам:

Ветер - указаны скорость ветра в м/с - средняя за 10 мин, порывы в срок и между сроками (в фигурных скобках) и направление, откуда дует ветер: С - северный, СВ - северо-восточный, В - восточный, ЮВ - юго-восточный, Ю - южный, ЮЗ - юго-западный, З - западный, СЗ - северо-западный.
Видимость - горизонтальная дальность видимости в метрах или километрах. При видимости от 1 до 10 км при отсутствии осадков обычно наблюдается дымка, при ухудшении видимости до 1 км и менее - туман. В сухую погоду видимость может ухудшаться дымом, пылью или мглою.
Явления - указаны атмосферные явления, наблюдавшиеся в срок или в последний час перед сроком; фигурными скобками обозначены явления, наблюдавшиеся между сроками (за 1-3 часа до срока); квадратными скобками обозначены град или гололедные отложения с указанием их диаметра в мм.
Облачность - указаны через наклонную черту общая и нижняя облачность в баллах и высота нижней границы облаков в метрах; квадратными скобками обозначены формы облаков: Ci - перистые, Cs - перисто-слоистые, Cc - перисто-кучевые, Ac - высококучевые, As - высокослоистые, Sc - слоисто-кучевые, Ns - слоисто-дождевые, Cu - кучевые, Cb - кучево-дождевые. Подробнее классификацию облаков см. в Атласе облаков (PDF).
T - Температура воздуха - температура, измеренная на высоте 2 м над землей.
Td - Температура точки росы - температура, при понижении до которой содержащийся в воздухе водяной пар достигнет насыщения.
f - Относительная влажность воздуха - влажноcть воздуха, измеренная на высоте 2 м над землей.
Te - Эффективная температура - температура, которую ощущает одетый по сезону человек в тени. Характеристика душности погоды. При расчете учитывается влияние влажности воздуха и скорости ветра на теплоощущения человека.
Tes - Эффективная температура на солнце - температура, которую ощущает человек, с поправкой на солнечный нагрев. Характеристика знойности погоды. Зависит от высоты солнца над горизонтом, облачности и скорости ветра. Ночью, в пасмурную погоду, а также при ветре 12 м/с и более поправка равна нулю.
P - Атмосферное давление - приведенное к уровню моря атмосферное давление.
Po - Атмосферное давление - измеренное на уровне метеостанции атмосферное давление.
Tmin - Минимальная температура - минимум температуры воздуха на высоте 2 м над землей.
Tmax - Максимальная температура - максимум температуры воздуха на высоте 2 м над землей.
R - Количество осадков - Количество выпавших осадков за период времени, мм. При наведении курсора мыши на число - период времени, за который выпало указанное количество осадков.
R24 - Количество осадков - Количество выпавших осадков за 24 часа, мм.
S - Снежный покров - Высота снежного покрова, см. При наведении курсора мыши на число - состояние снежного покрова и степень покрытия местности в баллах.